Location: McFarlands Corners
(41.4117°N, 81.3382°W)
Time: 13:44:44
(UTC+00:00)

Courier 1B Rocket - Pass Details

Date: 20 February 2026
Orbit: 920 x 1201 km, 28.2° (Epoch: 10 March)

Event Time Altitude Azimuth Distance (km) Brightness Sun altitude
Rises 22:58:08 0° 219° (SW) 3,559 8.9 0.5°
Reaches altitude 10° 23:01:48 10° 199° (SSW) 2,602 7.8 -0.2°
Maximum altitude 23:05:26 16° 163° (SSE) 2,191 6.9 -0.8°
Drops below altitude 10° 23:09:05 10° 126° (SE) 2,613 6.9 -1.5°
Sets 23:12:45 0° 106° (ESE) 3,582 7.4 -2.2°
